TimePST,TemperatureF,Dew PointF,Humidity,Sea Level PressureIn,VisibilityMPH,Wind Direction,Wind SpeedMPH,Gust SpeedMPH,PrecipitationIn,Events,Conditions,WindDirDegrees,DateUTC
12:06 AM,48.2,46.4,93,29.87,2.5,Calm,Calm,-,0.06,,Overcast,0,2013-03-08 08:06:00
12:26 AM,46.4,44.6,93,29.86,5.0,NNW,5.8,-,0.14,,Overcast,340,2013-03-08 08:26:00
12:51 AM,46.4,44.6,93,29.86,6.0,Variable,4.6,-,0.16,,Overcast,0,2013-03-08 08:51:00
12:54 AM,46.9,45.0,93,29.90,6.0,NNW,3.5,-,0.16,,Overcast,340,2013-03-08 08:54:00
1:17 AM,46.4,44.6,93,29.85,10.0,NW,3.5,-,N/A,,Overcast,320,2013-03-08 09:17:00
1:24 AM,46.4,44.6,93,29.86,10.0,North,3.5,-,N/A,,Overcast,350,2013-03-08 09:24:00
1:54 AM,46.9,45.0,93,29.89,10.0,Calm,Calm,-,N/A,,Overcast,0,2013-03-08 09:54:00
2:05 AM,46.4,44.6,93,29.85,10.0,Calm,Calm,-,N/A,,Overcast,0,2013-03-08 10:05:00
2:54 AM,46.0,44.1,93,29.88,10.0,Calm,Calm,-,N/A,,Overcast,0,2013-03-08 10:54:00
3:10 AM,46.4,44.6,93,29.84,10.0,Calm,Calm,-,N/A,,Overcast,0,2013-03-08 11:10:00
3:30 AM,46.4,44.6,93,29.84,10.0,Calm,Calm,-,N/A,,Overcast,0,2013-03-08 11:30:00
4:54 AM,45.0,43.0,93,29.88,10.0,Calm,Calm,-,N/A,,Mostly Cloudy,0,2013-03-08 12:54:00
5:26 AM,44.6,42.8,93,29.85,10.0,Calm,Calm,-,N/A,,Mostly Cloudy,0,2013-03-08 13:26:00
5:54 AM,45.0,44.1,97,29.90,10.0,ESE,5.8,-,N/A,,Overcast,110,2013-03-08 13:54:00
6:54 AM,46.0,44.1,93,29.91,10.0,Calm,Calm,-,N/A,,Overcast,0,2013-03-08 14:54:00
7:28 AM,46.4,44.6,93,29.88,10.0,Calm,Calm,-,N/A,,Mostly Cloudy,0,2013-03-08 15:28:00
7:54 AM,48.0,44.1,86,29.94,10.0,ESE,5.8,-,N/A,,Mostly Cloudy,110,2013-03-08 15:54:00
8:54 AM,48.9,44.1,83,29.96,10.0,South,4.6,-,N/A,,Overcast,190,2013-03-08 16:54:00
9:27 AM,50.0,46.4,87,29.93,10.0,WSW,9.2,-,N/A,,Overcast,250,2013-03-08 17:27:00
9:54 AM,51.1,46.0,83,29.98,10.0,West,8.1,-,N/A,,Overcast,270,2013-03-08 17:54:00
10:54 AM,51.1,44.1,77,29.99,10.0,West,10.4,19.6,N/A,,Overcast,270,2013-03-08 18:54:00
11:54 AM,51.1,44.1,77,30.00,10.0,WSW,12.7,-,N/A,,Overcast,240,2013-03-08 19:54:00
12:54 PM,51.1,44.1,77,30.01,10.0,West,15.0,21.9,N/A,,Overcast,260,2013-03-08 20:54:00
1:54 PM,52.0,44.1,74,30.00,10.0,West,16.1,24.2,N/A,,Mostly Cloudy,270,2013-03-08 21:54:00
2:54 PM,52.0,42.1,69,30.01,10.0,WSW,19.6,26.5,N/A,,Mostly Cloudy,250,2013-03-08 22:54:00
3:54 PM,51.1,42.1,71,30.03,10.0,West,12.7,26.5,N/A,,Overcast,260,2013-03-08 23:54:00
4:54 PM,51.1,41.0,68,30.04,10.0,West,15.0,20.7,N/A,,Overcast,260,2013-03-09 00:54:00
5:54 PM,50.0,41.0,71,30.07,10.0,West,9.2,-,N/A,,Overcast,270,2013-03-09 01:54:00
6:54 PM,50.0,39.9,68,30.10,10.0,West,10.4,-,N/A,,Overcast,260,2013-03-09 02:54:00
7:25 PM,50.0,41.0,71,30.08,10.0,West,13.8,18.4,N/A,,Overcast,270,2013-03-09 03:25:00
7:39 PM,50.0,41.0,71,30.08,10.0,West,13.8,20.7,N/A,,Overcast,270,2013-03-09 03:39:00
7:54 PM,50.0,39.0,66,30.12,10.0,West,9.2,19.6,N/A,,Overcast,260,2013-03-09 03:54:00
8:54 PM,50.0,41.0,71,30.14,10.0,West,10.4,-,N/A,,Overcast,260,2013-03-09 04:54:00
9:54 PM,50.0,41.0,71,30.16,10.0,West,12.7,-,N/A,,Overcast,270,2013-03-09 05:54:00
10:09 PM,50.0,39.2,66,30.12,10.0,WSW,13.8,18.4,N/A,,Overcast,250,2013-03-09 06:09:00
10:16 PM,50.0,39.2,66,30.12,10.0,West,11.5,-,N/A,,Overcast,270,2013-03-09 06:16:00
10:54 PM,50.0,39.9,68,30.17,10.0,West,13.8,-,N/A,,Overcast,270,2013-03-09 06:54:00
11:54 PM,50.0,39.9,68,30.17,10.0,West,11.5,17.3,N/A,,Overcast,270,2013-03-09 07:54:00